Location: Banios
(43.0451°N, 0.2335°E)
Time: 08:52:50
(UTC+00:00)

A-11 Canister half - Pass Details

Date: 17 May 2021
Orbit: 1527 x 1681 km, 47.3° (Epoch: 22 June)

Event Time Altitude Azimuth Distance (km) Brightness Sun altitude
Rises 13:53:33 0° 295° (WNW) 4,823 11.8 55.8°
Reaches altitude 10° 13:56:40 10° 293° (WNW) 3,856 11.5 55.3°
Maximum altitude 14:06:20 62° 216° (SW) 1,829 11.5 53.8°
Drops below altitude 10° 14:16:13 10° 138° (SE) 3,931 11.2 52.2°
Sets 14:19:26 0° 136° (SE) 4,921 11.5 51.7°
